Station Historical Data
Daily Summary for November 20, 2017 Units:  Metric    English   Both
« Previous Day
Next Day »
Daily Weekly Monthly Yearly Custom
  High: Low: Average:
Temperature: 6 °C -0.8 °C 2.2 °C
Dew Point: 1.1 °C -6.6 °C -3.1 °C
Humidity: 83% 61% 68%
Wind Speed: 30.6km/h 3.2km/h 11.1km/h
Wind Gust: 48.3km/h - -
Wind- - WSW
Pressure: 1016.8 hPa 1012.4 hPa -
Precipitation: 0 mm    
Historical Graphs
 
 
Tabular Data for November 20, 2017
Time Temperature Dew Point Pressure Wind Wind Speed Wind Gust Humidity Rainfall Rate (Hourly)
00:04 -0.4 °C -4.2 °C 1012.4 hPa WNW 14.5 km/h 22.5 km/h 76% 0 mm
00:19 -0.3 °C -4.4 °C 1012.8 hPa West 12.9 km/h 27.4 km/h 74% 0 mm
00:29 -0.3 °C -4.4 °C 1012.8 hPa WSW 4.8 km/h 22.5 km/h 74% 0 mm
00:34 -0.3 °C -4.4 °C 1012.8 hPa West 9.7 km/h 22.5 km/h 74% 0 mm
00:39 -0.3 °C -4.4 °C 1012.8 hPa West 9.7 km/h 22.5 km/h 74% 0 mm
00:44 -0.3 °C -4.3 °C 1012.8 hPa West 9.7 km/h 20.9 km/h 74% 0 mm
00:49 -0.2 °C -4.3 °C 1012.8 hPa West 11.3 km/h 25.7 km/h 74% 0 mm
00:59 -0.3 °C -4.2 °C 1013.1 hPa West 12.9 km/h 25.7 km/h 75% 0 mm
01:04 -0.3 °C -4.2 °C 1013.1 hPa West 14.5 km/h 25.7 km/h 75% 0 mm
01:09 -0.3 °C -4.2 °C 1013.1 hPa WNW 16.1 km/h 24.1 km/h 75% 0 mm
01:14 -0.3 °C -4.2 °C 1013.1 hPa SSW 4.8 km/h 24.1 km/h 75% 0 mm
01:24 -0.3 °C -4.4 °C 1013.1 hPa WNW 6.4 km/h 20.9 km/h 74% 0 mm
01:29 -0.3 °C -4.2 °C 1013.1 hPa WSW 8 km/h 19.3 km/h 75% 0 mm
01:39 -0.3 °C -4.1 °C 1013.4 hPa West 11.3 km/h 27.4 km/h 76% 0 mm
01:44 -0.4 °C -4.1 °C 1013.4 hPa West 12.9 km/h 27.4 km/h 76% 0 mm
01:49 -0.4 °C -4.1 °C 1013.4 hPa West 12.9 km/h 22.5 km/h 76% 0 mm
01:59 -0.4 °C -4.2 °C 1013.4 hPa West 12.9 km/h 30.6 km/h 76% 0 mm
02:09 -0.5 °C -4.2 °C 1013.4 hPa WSW 11.3 km/h 17.7 km/h 76% 0 mm
02:14 -0.5 °C -4.2 °C 1013.8 hPa West 11.3 km/h 22.5 km/h 76% 0 mm
02:19 -0.5 °C -4.2 °C 1013.8 hPa West 11.3 km/h 22.5 km/h 76% 0 mm
02:24 -0.5 °C -4.4 °C 1013.8 hPa West 12.9 km/h 29 km/h 75% 0 mm
02:29 -0.5 °C -4.4 °C 1013.8 hPa WSW 16.1 km/h 19.3 km/h 75% 0 mm
02:34 -0.5 °C -4.6 °C 1013.8 hPa WSW 16.1 km/h 25.7 km/h 74% 0 mm
02:39 -0.5 °C -4.6 °C 1014.1 hPa WNW 12.9 km/h 24.1 km/h 74% 0 mm
02:49 -0.6 °C -5 °C 1014.1 hPa West 12.9 km/h 27.4 km/h 72% 0 mm
02:54 -0.6 °C -5 °C 1014.1 hPa West 12.9 km/h 25.7 km/h 72% 0 mm
02:59 -0.6 °C -5.2 °C 1014.1 hPa West 12.9 km/h 25.7 km/h 71% 0 mm
03:04 -0.6 °C -5.2 °C 1014.1 hPa NW 16.1 km/h 29 km/h 71% 0 mm
03:14 -0.7 °C -5.3 °C 1014.4 hPa West 20.9 km/h 25.7 km/h 71% 0 mm
03:19 -0.7 °C -5.3 °C 1014.4 hPa West 11.3 km/h 25.7 km/h 71% 0 mm
03:24 -0.7 °C -5.3 °C 1014.4 hPa West 11.3 km/h 27.4 km/h 71% 0 mm
03:29 -0.7 °C -5.5 °C 1014.4 hPa West 12.9 km/h 29 km/h 70% 0 mm
03:34 -0.7 °C -5.5 °C 1014.8 hPa West 12.9 km/h 29 km/h 70% 0 mm
03:39 -0.7 °C -5.5 °C 1014.8 hPa West 11.3 km/h 25.7 km/h 70% 0 mm
03:44 -0.7 °C -5.5 °C 1014.8 hPa West 12.9 km/h 17.7 km/h 70% 0 mm
03:49 -0.8 °C -5.6 °C 1014.8 hPa SW 8 km/h 22.5 km/h 70% 0 mm
03:54 -0.8 °C -5.8 °C 1014.8 hPa West 11.3 km/h 24.1 km/h 69% 0 mm
03:59 -0.7 °C -5.9 °C 1014.8 hPa West 11.3 km/h 24.1 km/h 68% 0 mm
04:09 -0.7 °C -6.1 °C 1014.8 hPa WSW 14.5 km/h 17.7 km/h 67% 0 mm
04:14 -0.7 °C -6.1 °C 1015.1 hPa West 9.7 km/h 25.7 km/h 67% 0 mm
04:19 -0.7 °C -6.1 °C 1014.8 hPa West 12.9 km/h 25.7 km/h 67% 0 mm
04:24 -0.7 °C -6.1 °C 1015.1 hPa West 16.1 km/h 24.1 km/h 67% 0 mm
04:29 -0.7 °C -6.1 °C 1015.1 hPa West 11.3 km/h 24.1 km/h 67% 0 mm
04:34 -0.7 °C -6.1 °C 1015.1 hPa WSW 11.3 km/h 25.7 km/h 67% 0 mm
04:39 -0.7 °C -6.1 °C 1015.1 hPa WSW 9.7 km/h 25.7 km/h 67% 0 mm
04:44 -0.6 °C -6.1 °C 1015.1 hPa WSW 9.7 km/h 19.3 km/h 66% 0 mm
04:49 -0.6 °C -6.1 °C 1015.1 hPa West 8 km/h 22.5 km/h 66% 0 mm
04:54 -0.6 °C -6.1 °C 1015.5 hPa WSW 19.3 km/h 24.1 km/h 66% 0 mm
04:59 -0.5 °C -6.1 °C 1015.1 hPa West 11.3 km/h 30.6 km/h 66% 0 mm
05:04 -0.5 °C -6.1 °C 1015.5 hPa West 14.5 km/h 30.6 km/h 66% 0 mm
05:09 -0.5 °C -6.1 °C 1015.1 hPa West 11.3 km/h 27.4 km/h 66% 0 mm
05:19 -0.6 °C -6.4 °C 1015.5 hPa WSW 9.7 km/h 20.9 km/h 65% 0 mm
05:24 -0.6 °C -6.4 °C 1015.1 hPa WSW 6.4 km/h 19.3 km/h 65% 0 mm
05:34 -0.6 °C -6.4 °C 1015.5 hPa West 11.3 km/h 20.9 km/h 65% 0 mm
05:39 -0.6 °C -6.3 °C 1015.5 hPa WSW 11.3 km/h 27.4 km/h 65% 0 mm
05:44 -0.5 °C -6.5 °C 1015.5 hPa WSW 11.3 km/h 27.4 km/h 64% 0 mm
05:49 -0.4 °C -6.6 °C 1015.5 hPa WSW 11.3 km/h 27.4 km/h 63% 0 mm
05:54 -0.4 °C -6.4 °C 1015.8 hPa WSW 11.3 km/h 24.1 km/h 64% 0 mm
06:04 -0.3 °C -6.3 °C 1015.8 hPa WSW 12.9 km/h 37 km/h 64% 0 mm
06:09 -0.3 °C -6.3 °C 1015.8 hPa West 8 km/h 22.5 km/h 64% 0 mm
06:14 -0.2 °C -6.2 °C 1015.8 hPa WSW 11.3 km/h 30.6 km/h 64% 0 mm
06:19 -0.2 °C -5.9 °C 1015.8 hPa WSW 11.3 km/h 24.1 km/h 65% 0 mm
06:34 -0.2 °C -5.8 °C 1015.8 hPa West 16.1 km/h 24.1 km/h 66% 0 mm
06:39 -0.2 °C -5.8 °C 1016.1 hPa WSW 12.9 km/h 32.2 km/h 66% 0 mm
06:44 -0.2 °C -5.8 °C 1016.1 hPa West 9.7 km/h 32.2 km/h 66% 0 mm
06:49 -0.3 °C -5.7 °C 1016.1 hPa West 9.7 km/h 22.5 km/h 67% 0 mm
06:54 -0.3 °C -5.7 °C 1016.1 hPa West 9.7 km/h 22.5 km/h 67% 0 mm
06:59 -0.3 °C -5.7 °C 1016.1 hPa West 9.7 km/h 20.9 km/h 67% 0 mm
07:04 -0.3 °C -5.7 °C 1016.1 hPa WSW 6.4 km/h 20.9 km/h 67% 0 mm
07:09 -0.3 °C -5.7 °C 1016.1 hPa West 11.3 km/h 25.7 km/h 67% 0 mm
07:14 -0.3 °C -5.9 °C 1016.1 hPa West 12.9 km/h 25.7 km/h 66% 0 mm
07:24 -0.3 °C -5.9 °C 1016.1 hPa WSW 12.9 km/h 19.3 km/h 66% 0 mm
07:29 -0.3 °C -5.9 °C 1016.5 hPa West 9.7 km/h 20.9 km/h 66% 0 mm
07:34 -0.2 °C -5.8 °C 1016.5 hPa WSW 9.7 km/h 24.1 km/h 66% 0 mm
07:39 -0.2 °C -5.8 °C 1016.5 hPa West 12.9 km/h 20.9 km/h 66% 0 mm
07:44 -0.2 °C -5.6 °C 1016.5 hPa SSW 14.5 km/h 22.5 km/h 67% 0 mm
07:49 -0.2 °C -5.6 °C 1016.5 hPa West 9.7 km/h 25.7 km/h 67% 0 mm
07:54 -0.1 °C -5.5 °C 1016.5 hPa West 12.9 km/h 25.7 km/h 67% 0 mm
08:04 -0.1 °C -5.5 °C 1016.8 hPa West 11.3 km/h 25.7 km/h 67% 0 mm
08:09 -0.2 °C -5.6 °C 1016.8 hPa West 11.3 km/h 30.6 km/h 67% 0 mm
08:14 -0.2 °C -5.6 °C 1016.8 hPa West 11.3 km/h 30.6 km/h 67% 0 mm
08:24 -0.1 °C -5.5 °C 1016.8 hPa West 14.5 km/h 22.5 km/h 67% 0 mm
08:29 -0.1 °C -5.4 °C 1016.8 hPa WSW 8 km/h 24.1 km/h 67% 0 mm
08:34 -0.1 °C -5.4 °C 1016.8 hPa West 9.7 km/h 20.9 km/h 67% 0 mm
08:39 0 °C -5.4 °C 1016.8 hPa WSW 9.7 km/h 20.9 km/h 67% 0 mm
08:44 0.1 °C -5.3 °C 1016.8 hPa West 8 km/h 22.5 km/h 67% 0 mm
08:49 0.2 °C -5.2 °C 1016.8 hPa WSW 9.7 km/h 22.5 km/h 67% 0 mm
08:59 0.4 °C -5.1 °C 1016.8 hPa West 11.3 km/h 25.7 km/h 67% 0 mm
09:04 0.4 °C -5.1 °C 1016.8 hPa West 9.7 km/h 20.9 km/h 67% 0 mm
09:09 0.5 °C -4.9 °C 1016.8 hPa West 9.7 km/h 19.3 km/h 67% 0 mm
09:14 0.6 °C -4.9 °C 1016.8 hPa WSW 8 km/h 22.5 km/h 67% 0 mm
09:19 0.7 °C -4.7 °C 1016.8 hPa West 16.1 km/h 29 km/h 67% 0 mm
09:24 0.9 °C -4.7 °C 1016.5 hPa SW 8 km/h 22.5 km/h 66% 0 mm
09:29 1.1 °C -4.6 °C 1016.5 hPa West 12.9 km/h 22.5 km/h 66% 0 mm
09:34 1.2 °C -4.5 °C 1016.5 hPa WSW 14.5 km/h 19.3 km/h 66% 0 mm
09:39 1.3 °C -4.4 °C 1016.5 hPa NW 12.9 km/h 19.3 km/h 66% 0 mm
09:44 1.4 °C -4.3 °C 1016.5 hPa West 4.8 km/h 19.3 km/h 66% 0 mm
09:54 1.6 °C -3.9 °C 1016.5 hPa West 4.8 km/h 17.7 km/h 67% 0 mm
09:59 1.7 °C -3.6 °C 1016.5 hPa West 12.9 km/h 16.1 km/h 68% 0 mm
10:04 1.8 °C -3.5 °C 1016.5 hPa West 9.7 km/h 19.3 km/h 68% 0 mm
10:09 1.9 °C -3.4 °C 1016.5 hPa West 9.7 km/h 19.3 km/h 68% 0 mm
10:14 2 °C -3.1 °C 1016.1 hPa West 9.7 km/h 22.5 km/h 69% 0 mm
10:19 2 °C -3.1 °C 1016.1 hPa West 11.3 km/h 22.5 km/h 69% 0 mm
10:29 2.1 °C -3 °C 1016.1 hPa West 19.3 km/h 19.3 km/h 69% 0 mm
10:34 2.2 °C -2.9 °C 1016.1 hPa NW 6.4 km/h 17.7 km/h 69% 0 mm
10:49 2.5 °C -2.4 °C 1016.1 hPa NW 9.7 km/h 14.5 km/h 70% 0 mm
11:04 2.7 °C -2.1 °C 1016.1 hPa WNW 9.7 km/h 12.9 km/h 71% 0 mm
11:09 2.7 °C -1.9 °C 1016.1 hPa West 8 km/h 16.1 km/h 72% 0 mm
11:14 2.7 °C -1.9 °C 1016.1 hPa West 8 km/h 16.1 km/h 72% 0 mm
11:19 2.7 °C -1.6 °C 1015.8 hPa West 8 km/h 16.1 km/h 73% 0 mm
11:24 2.8 °C -1.6 °C 1015.8 hPa West 4.8 km/h 14.5 km/h 73% 0 mm
11:29 2.9 °C -1.5 °C 1015.8 hPa West 8 km/h 14.5 km/h 73% 0 mm
11:34 2.9 °C -1.3 °C 1015.8 hPa WNW 3.2 km/h 11.3 km/h 74% 0 mm
11:39 2.9 °C -1.2 °C 1015.8 hPa WSW 8 km/h 11.3 km/h 74% 0 mm
11:44 3 °C -1 °C 1015.8 hPa WSW 4.8 km/h 11.3 km/h 75% 0 mm
11:49 3.1 °C -0.6 °C 1015.8 hPa SW 4.8 km/h 11.3 km/h 77% 0 mm
11:54 3 °C -0.1 °C 1015.8 hPa SSW 3.2 km/h 12.9 km/h 80% 0 mm
11:59 2.7 °C -0.2 °C 1015.8 hPa WSW 3.2 km/h 9.7 km/h 81% 0 mm
12:04 2.4 °C -0.3 °C 1015.5 hPa SW 3.2 km/h 12.9 km/h 82% 0 mm
12:09 2.4 °C -0.4 °C 1015.5 hPa SW 4.8 km/h 8 km/h 82% 0 mm
12:24 3.3 °C 0.7 °C 1015.5 hPa WNW 11.3 km/h 32.2 km/h 83% 0 mm
12:34 3.4 °C 0.6 °C 1015.1 hPa WSW 16.1 km/h 33.8 km/h 82% 0 mm
12:39 3.5 °C 0.7 °C 1015.1 hPa WSW 16.1 km/h 38.6 km/h 82% 0 mm
12:44 3.6 °C 0.8 °C 1015.1 hPa WSW 19.3 km/h 35.4 km/h 82% 0 mm
12:49 3.7 °C 0.7 °C 1015.1 hPa WSW 25.7 km/h 33.8 km/h 81% 0 mm
12:54 3.8 °C 0.7 °C 1015.1 hPa West 19.3 km/h 40.2 km/h 80% 0 mm
13:04 3.9 °C 0.6 °C 1014.8 hPa SSW 17.7 km/h 33.8 km/h 79% 0 mm
13:09 4 °C 0.7 °C 1014.8 hPa WSW 12.9 km/h 38.6 km/h 79% 0 mm
13:14 4.1 °C 0.6 °C 1014.8 hPa West 24.1 km/h 33.8 km/h 78% 0 mm
13:24 4.4 °C 0.9 °C 1014.8 hPa WSW 19.3 km/h 48.3 km/h 78% 0 mm
13:29 4.6 °C 1.1 °C 1014.8 hPa WSW 19.3 km/h 48.3 km/h 78% 0 mm
13:39 4.7 °C 1 °C 1014.4 hPa WSW 17.7 km/h 35.4 km/h 77% 0 mm
13:44 4.8 °C 1.1 °C 1014.8 hPa SW 20.9 km/h 43.5 km/h 77% 0 mm
13:49 4.8 °C 0.9 °C 1014.8 hPa WSW 30.6 km/h 40.2 km/h 76% 0 mm
13:54 4.7 °C 0.7 °C 1014.8 hPa WSW 22.5 km/h 46.7 km/h 75% 0 mm
13:59 4.7 °C 0.7 °C 1014.8 hPa WSW 6.4 km/h 32.2 km/h 75% 0 mm
14:04 4.7 °C 0.6 °C 1014.8 hPa SW 30.6 km/h 35.4 km/h 75% 0 mm
14:09 4.6 °C 0.4 °C 1014.8 hPa West 17.7 km/h 37 km/h 74% 0 mm
14:14 4.6 °C 0.6 °C 1014.8 hPa SW 16.1 km/h 29 km/h 75% 0 mm
14:24 5.1 °C 0.8 °C 1014.8 hPa WSW 17.7 km/h 32.2 km/h 74% 0 mm
14:34 5.3 °C 0.8 °C 1014.4 hPa WSW 17.7 km/h 38.6 km/h 73% 0 mm
14:39 5.4 °C 0.7 °C 1014.4 hPa WSW 16.1 km/h 30.6 km/h 72% 0 mm
14:44 5.5 °C 0.8 °C 1014.4 hPa SW 20.9 km/h 37 km/h 72% 0 mm
14:49 5.6 °C 0.7 °C 1014.4 hPa SW 16.1 km/h 38.6 km/h 71% 0 mm
14:54 5.5 °C 0.7 °C 1014.4 hPa WNW 17.7 km/h 30.6 km/h 71% 0 mm
14:59 5.4 °C 0.6 °C 1014.4 hPa WSW 14.5 km/h 30.6 km/h 71% 0 mm
15:04 5.4 °C 0.6 °C 1014.4 hPa WSW 14.5 km/h 33.8 km/h 71% 0 mm
15:09 5.3 °C 0.5 °C 1014.4 hPa WSW 16.1 km/h 33.8 km/h 71% 0 mm
15:14 5.3 °C 0.5 °C 1014.1 hPa WSW 14.5 km/h 35.4 km/h 71% 0 mm
15:19 5.4 °C 0.2 °C 1014.4 hPa West 20.9 km/h 30.6 km/h 69% 0 mm
15:24 5.7 °C 0.4 °C 1014.4 hPa SW 20.9 km/h 37 km/h 69% 0 mm
15:29 5.8 °C 0.4 °C 1014.4 hPa WSW 19.3 km/h 40.2 km/h 68% 0 mm
15:34 5.9 °C 0.2 °C 1014.4 hPa WSW 19.3 km/h 40.2 km/h 67% 0 mm
15:39 5.9 °C 0.3 °C 1014.4 hPa WSW 16.1 km/h 33.8 km/h 67% 0 mm
15:44 5.9 °C 0.3 °C 1014.1 hPa WSW 17.7 km/h 35.4 km/h 67% 0 mm
15:49 6 °C 0.3 °C 1014.1 hPa WSW 17.7 km/h 35.4 km/h 67% 0 mm
15:59 6 °C 0.3 °C 1014.1 hPa SSW 16.1 km/h 25.7 km/h 67% 0 mm
16:09 5.9 °C 0.1 °C 1014.1 hPa WSW 16.1 km/h 30.6 km/h 66% 0 mm
16:24 5.8 °C -0.2 °C 1014.1 hPa SW 11.3 km/h 24.1 km/h 65% 0 mm
16:29 5.8 °C -0.2 °C 1014.1 hPa SW 14.5 km/h 35.4 km/h 65% 0 mm
16:34 5.8 °C -0.4 °C 1014.1 hPa WSW 16.1 km/h 35.4 km/h 64% 0 mm
16:39 5.8 °C -0.4 °C 1014.1 hPa WSW 14.5 km/h 35.4 km/h 64% 0 mm
16:44 5.7 °C -0.3 °C 1014.1 hPa WSW 12.9 km/h 32.2 km/h 65% 0 mm
16:54 5.7 °C -0.4 °C 1014.1 hPa SW 11.3 km/h 24.1 km/h 65% 0 mm
16:59 5.5 °C -1 °C 1014.1 hPa SW 9.7 km/h 22.5 km/h 63% 0 mm
17:04 5.3 °C -1.4 °C 1014.1 hPa SSW 8 km/h 20.9 km/h 62% 0 mm
17:09 5.1 °C -1.8 °C 1014.1 hPa SSE 8 km/h 19.3 km/h 61% 0 mm
17:14 4.8 °C -2.1 °C 1013.8 hPa SSW 6.4 km/h 11.3 km/h 61% 0 mm
17:24 4.4 °C -2.4 °C 1014.1 hPa SSW 25.7 km/h 25.7 km/h 61% 0 mm
17:29 4.3 °C -2.6 °C 1014.1 hPa SSW 9.7 km/h 24.1 km/h 61% 0 mm
17:34 4.2 °C -2.4 °C 1014.1 hPa South 4.8 km/h 16.1 km/h 62% 0 mm
17:39 4.1 °C -2.5 °C 1014.1 hPa SSW 6.4 km/h 20.9 km/h 62% 0 mm
17:44 4 °C -2.6 °C 1014.1 hPa SSW 6.4 km/h 20.9 km/h 62% 0 mm
17:49 3.9 °C -2.4 °C 1014.1 hPa SSW 6.4 km/h 14.5 km/h 63% 0 mm
17:54 3.8 °C -2.6 °C 1014.1 hPa SSW 6.4 km/h 14.5 km/h 63% 0 mm
17:59 3.8 °C -2.6 °C 1014.1 hPa SSW 6.4 km/h 14.5 km/h 63% 0 mm
18:04 3.7 °C -2.4 °C 1014.1 hPa SSW 4.8 km/h 14.5 km/h 64% 0 mm
18:09 3.7 °C -2.5 °C 1014.1 hPa SSW 8 km/h 16.1 km/h 64% 0 mm
18:14 3.7 °C -2.5 °C 1014.1 hPa SSW 8 km/h 16.1 km/h 64% 0 mm
18:24 3.6 °C -2.4 °C 1014.1 hPa SW 4.8 km/h 12.9 km/h 65% 0 mm
18:29 3.6 °C -2.4 °C 1014.1 hPa South 11.3 km/h 17.7 km/h 65% 0 mm
18:34 3.6 °C -2.4 °C 1014.1 hPa SSW 6.4 km/h 16.1 km/h 65% 0 mm
18:39 3.6 °C -2.4 °C 1014.1 hPa SSW 8 km/h 12.9 km/h 65% 0 mm
18:44 3.5 °C -2.4 °C 1013.8 hPa SSW 6.4 km/h 14.5 km/h 65% 0 mm
18:49 3.5 °C -2.4 °C 1013.8 hPa SSW 8 km/h 14.5 km/h 65% 0 mm
18:59 3.4 °C -2.3 °C 1013.8 hPa SSW 6.4 km/h 16.1 km/h 66% 0 mm
19:04 3.5 °C -2.3 °C 1013.8 hPa SSW 8 km/h 20.9 km/h 66% 0 mm
19:09 3.6 °C -2.2 °C 1013.8 hPa SSW 8 km/h 20.9 km/h 66% 0 mm
19:14 3.6 °C -2.2 °C 1013.8 hPa SSW 6.4 km/h 17.7 km/h 66% 0 mm
19:24 3.8 °C -2.2 °C 1013.8 hPa SSW 6.4 km/h 16.1 km/h 65% 0 mm
19:29 3.9 °C -2.1 °C 1013.8 hPa SW 4.8 km/h 12.9 km/h 65% 0 mm
19:34 3.8 °C -2.2 °C 1013.8 hPa SSW 4.8 km/h 17.7 km/h 65% 0 mm
19:39 3.8 °C -2.2 °C 1013.8 hPa WSW 8 km/h 14.5 km/h 65% 0 mm
19:44 3.8 °C -2.2 °C 1013.8 hPa SSW 6.4 km/h 11.3 km/h 65% 0 mm
19:49 3.8 °C -2.3 °C 1013.8 hPa SW 11.3 km/h 16.1 km/h 64% 0 mm
19:54 3.8 °C -2.3 °C 1013.8 hPa SSW 8 km/h 17.7 km/h 64% 0 mm
20:14 3.7 °C -2.5 °C 1013.8 hPa SSW 8 km/h 14.5 km/h 64% 0 mm
20:19 3.8 °C -2.6 °C 1013.4 hPa SSW 8 km/h 16.1 km/h 63% 0 mm
20:24 3.7 °C -2.7 °C 1013.8 hPa SSW 4.8 km/h 14.5 km/h 63% 0 mm
20:29 3.6 °C -2.6 °C 1013.8 hPa SSW 6.4 km/h 14.5 km/h 64% 0 mm
20:34 3.6 °C -2.6 °C 1013.4 hPa SW 4.8 km/h 16.1 km/h 64% 0 mm
20:39 3.6 °C -2.6 °C 1013.4 hPa SW 6.4 km/h 14.5 km/h 64% 0 mm
20:44 3.6 °C -2.6 °C 1013.4 hPa SSW 6.4 km/h 14.5 km/h 64% 0 mm
20:49 3.5 °C -2.9 °C 1013.4 hPa SSW 6.4 km/h 16.1 km/h 63% 0 mm
20:54 3.6 °C -2.8 °C 1013.4 hPa SSW 4.8 km/h 16.1 km/h 63% 0 mm
20:59 3.6 °C -2.8 °C 1013.4 hPa SSW 8 km/h 17.7 km/h 63% 0 mm
21:04 3.6 °C -2.8 °C 1013.4 hPa SSW 8 km/h 19.3 km/h 63% 0 mm
21:09 3.6 °C -2.8 °C 1013.4 hPa SSW 8 km/h 19.3 km/h 63% 0 mm
21:19 3.4 °C -2.7 °C 1013.4 hPa SSW 8 km/h 17.7 km/h 64% 0 mm
21:24 3.4 °C -2.8 °C 1013.1 hPa SSW 8 km/h 16.1 km/h 64% 0 mm
21:34 3.4 °C -2.7 °C 1013.1 hPa South 8 km/h 14.5 km/h 64% 0 mm
21:39 3.3 °C -2.8 °C 1013.1 hPa South 6.4 km/h 12.9 km/h 64% 0 mm
21:44 3.3 °C -2.8 °C 1013.1 hPa SW 4.8 km/h 14.5 km/h 64% 0 mm
21:49 3.3 °C -2.9 °C 1013.1 hPa SW 6.4 km/h 11.3 km/h 64% 0 mm
21:54 3.2 °C -2.9 °C 1013.1 hPa SSW 4.8 km/h 14.5 km/h 64% 0 mm
21:59 3.1 °C -3.1 °C 1013.1 hPa SW 8 km/h 12.9 km/h 64% 0 mm
22:09 3.1 °C -3.1 °C 1013.1 hPa SSW 6.4 km/h 14.5 km/h 64% 0 mm
22:19 3.2 °C -3 °C 1013.1 hPa SSW 6.4 km/h 11.3 km/h 64% 0 mm
22:24 3.2 °C -3 °C 1013.1 hPa SSW 6.4 km/h 11.3 km/h 64% 0 mm
22:29 3.2 °C -3 °C 1013.1 hPa SSW 6.4 km/h 14.5 km/h 64% 0 mm
22:34 3.2 °C -2.9 °C 1012.8 hPa South 11.3 km/h 14.5 km/h 64% 0 mm
22:39 3.3 °C -3.1 °C 1012.8 hPa SW 3.2 km/h 12.9 km/h 63% 0 mm
22:44 3.3 °C -3.1 °C 1012.8 hPa SW 11.3 km/h 14.5 km/h 63% 0 mm
22:49 3.4 °C -3 °C 1012.4 hPa SW 8 km/h 16.1 km/h 63% 0 mm
22:54 3.5 °C -3.1 °C 1012.4 hPa SSE 3.2 km/h 20.9 km/h 62% 0 mm
22:59 3.6 °C -3 °C 1012.4 hPa SSE 9.7 km/h 16.1 km/h 62% 0 mm
23:19 3.7 °C -3.2 °C 1012.4 hPa SSW 9.7 km/h 25.7 km/h 61% 0 mm
23:24 3.7 °C -3.2 °C 1012.4 hPa SSW 9.7 km/h 25.7 km/h 61% 0 mm
23:29 3.6 °C -3.2 °C 1012.4 hPa SSW 9.7 km/h 25.7 km/h 61% 0 mm
23:34 3.6 °C -3.2 °C 1012.4 hPa SSW 8 km/h 25.7 km/h 61% 0 mm
23:39 3.7 °C -3.2 °C 1012.4 hPa WSW 8 km/h 20.9 km/h 61% 0 mm
23:44 3.7 °C -3.2 °C 1012.4 hPa SSW 6.4 km/h 16.1 km/h 61% 0 mm
23:49 3.7 °C -3.1 °C 1012.4 hPa SSW 9.7 km/h 16.1 km/h 61% 0 mm
23:54 3.8 °C -3.1 °C 1012.4 hPa SSW 9.7 km/h 17.7 km/h 61% 0 mm
Buffalo, New York, USA
Compliments of Weather Underground - 2.25 mb